When you browse on this site, cookies collect data to enhance your experience and personalize the content and advertising you see.
Visit our Privacy Policy to learn more. By continuing to use the site, you agree to this use of cookies and data.

Hourly Weather Roskov

Today, 6 July, Monday

Time Temperature Precipitation Wind Pressure Humidity
00:00 +19°C° 0 mm 1 mps 744 mmHg 92%
01:00 +19°C° 0 mm 1 mps 744 mmHg 92%
02:00 +18°C° 0 mm 2 mps 744 mmHg 93%
03:00 +18°C° 0 mm 2 mps 744 mmHg 93%
04:00 +18°C° 0 mm 2 mps 744 mmHg 93%
05:00 +18°C° 0 mm 2 mps 744 mmHg 93%
06:00 +20°C° 0 mm 2 mps 744 mmHg 89%
07:00 +21°C° 0 mm 3 mps 744 mmHg 85%
08:00 +24°C° 0 mm 3 mps 744 mmHg 81%
09:00 +25°C° 0 mm 3 mps 744 mmHg 77%
10:00 +26°C° 0 mm 3 mps 743 mmHg 73%
11:00 +27°C° 0 mm 4 mps 743 mmHg 69%
12:00 +27°C° 0 mm 4 mps 743 mmHg 68%
13:00 +28°C° 0 mm 4 mps 743 mmHg 68%
14:00 +28°C° 0 mm 4 mps 743 mmHg 67%
15:00 +28°C° 0 mm 4 mps 742 mmHg 69%
16:00 +28°C° 0 mm 4 mps 742 mmHg 72%
17:00 +28°C° 0 mm 3 mps 741 mmHg 74%
18:00 +26°C° 0.1 mm 3 mps 741 mmHg 78%
19:00 +25°C° 0.1 mm 3 mps 741 mmHg 83%
20:00 +24°C° 0.1 mm 3 mps 741 mmHg 87%
21:00 +22°C° 0 mm 3 mps 741 mmHg 88%
22:00 +21°C° 0 mm 3 mps 741 mmHg 90%
23:00 +20°C° 0 mm 3 mps 741 mmHg 91%

Tomorrow, 7 July, Tuesday

Time Temperature Precipitation Wind Pressure Humidity
00:00 +20°C° 0 mm 3 mps 741 mmHg 92%
01:00 +20°C° 0 mm 3 mps 740 mmHg 92%
02:00 +19°C° 0 mm 3 mps 740 mmHg 93%
03:00 +19°C° 0 mm 3 mps 740 mmHg 93%
04:00 +19°C° 0 mm 2 mps 740 mmHg 93%
05:00 +19°C° 0 mm 2 mps 740 mmHg 94%
06:00 +20°C° 0.2 mm 2 mps 740 mmHg 91%
07:00 +21°C° 0.2 mm 2 mps 740 mmHg 89%
08:00 +23°C° 0.2 mm 2 mps 740 mmHg 87%
09:00 +23°C° 1 mm 2 mps 740 mmHg 87%
10:00 +22°C° 1 mm 3 mps 740 mmHg 87%
11:00 +22°C° 1 mm 4 mps 740 mmHg 87%
12:00 +22°C° 0.5 mm 4 mps 740 mmHg 88%
13:00 +21°C° 0.5 mm 5 mps 740 mmHg 88%
14:00 +21°C° 0.5 mm 5 mps 740 mmHg 89%
15:00 +20°C° 0.8 mm 5 mps 740 mmHg 89%
16:00 +19°C° 0.8 mm 6 mps 740 mmHg 90%
17:00 +17°C° 0.8 mm 6 mps 739 mmHg 90%
18:00 +16°C° 1.6 mm 6 mps 740 mmHg 91%
19:00 +14°C° 1.6 mm 6 mps 740 mmHg 92%
20:00 +13°C° 1.6 mm 5 mps 740 mmHg 92%
21:00 +13°C° 0.7 mm 5 mps 740 mmHg 92%
22:00 +13°C° 0.7 mm 5 mps 740 mmHg 93%
23:00 +13°C° 0.7 mm 5 mps 740 mmHg 93%

Day after tomorrow, 8 July, Wednesday

Time Temperature Precipitation Wind Pressure Humidity
00:00 +13°C° 0.8 mm 5 mps 741 mmHg 94%
01:00 +13°C° 0.8 mm 4 mps 741 mmHg 95%
02:00 +13°C° 0.8 mm 4 mps 741 mmHg 95%
03:00 +13°C° 0.6 mm 4 mps 741 mmHg 95%
04:00 +13°C° 0.6 mm 3 mps 742 mmHg 95%
05:00 +13°C° 0.6 mm 3 mps 742 mmHg 94%
06:00 +13°C° 0 mm 3 mps 742 mmHg 93%
07:00 +13°C° 0 mm 4 mps 742 mmHg 91%
08:00 +14°C° 0 mm 4 mps 743 mmHg 90%
09:00 +15°C° 0.1 mm 4 mps 743 mmHg 84%
10:00 +17°C° 0.1 mm 4 mps 743 mmHg 79%
11:00 +18°C° 0.1 mm 4 mps 744 mmHg 73%
12:00 +19°C° 0.1 mm 4 mps 744 mmHg 70%
13:00 +19°C° 0.1 mm 4 mps 744 mmHg 68%
14:00 +20°C° 0.1 mm 4 mps 744 mmHg 65%
15:00 +20°C° 0 mm 4 mps 744 mmHg 66%
16:00 +20°C° 0 mm 3 mps 744 mmHg 68%
17:00 +20°C° 0 mm 3 mps 744 mmHg 70%
18:00 +18°C° 0 mm 3 mps 744 mmHg 76%
19:00 +17°C° 0 mm 3 mps 744 mmHg 81%
20:00 +15°C° 0 mm 2 mps 745 mmHg 87%
21:00 +15°C° 0 mm 2 mps 745 mmHg 88%
22:00 +14°C° 0 mm 2 mps 745 mmHg 90%
23:00 +13°C° 0 mm 2 mps 745 mmHg 91%

9 July, Thursday

Time Temperature Precipitation Wind Pressure Humidity
00:00 +12°C° 0 mm 2 mps 745 mmHg 91%
01:00 +12°C° 0 mm 2 mps 745 mmHg 92%
02:00 +12°C° 0 mm 2 mps 745 mmHg 92%
03:00 +12°C° 0 mm 2 mps 745 mmHg 92%
04:00 +12°C° 0 mm 2 mps 745 mmHg 92%
05:00 +13°C° 0 mm 2 mps 745 mmHg 92%
06:00 +13°C° 0.4 mm 2 mps 745 mmHg 93%
07:00 +13°C° 0.4 mm 2 mps 746 mmHg 94%
08:00 +13°C° 0.4 mm 2 mps 746 mmHg 95%
09:00 +14°C° 0.6 mm 3 mps 746 mmHg 91%
10:00 +16°C° 0.6 mm 3 mps 746 mmHg 87%
11:00 +17°C° 0.6 mm 4 mps 746 mmHg 83%
12:00 +18°C° 0.4 mm 4 mps 746 mmHg 77%
13:00 +19°C° 0.4 mm 5 mps 746 mmHg 72%
14:00 +19°C° 0.4 mm 5 mps 746 mmHg 66%
15:00 +19°C° 0 mm 5 mps 746 mmHg 67%
16:00 +19°C° 0 mm 4 mps 746 mmHg 68%
17:00 +19°C° 0 mm 4 mps 746 mmHg 69%
18:00 +17°C° 0.1 mm 3 mps 747 mmHg 75%
19:00 +16°C° 0.1 mm 3 mps 747 mmHg 80%
20:00 +14°C° 0.1 mm 2 mps 747 mmHg 86%
21:00 +14°C° 0 mm 2 mps 747 mmHg 88%
22:00 +13°C° 0 mm 2 mps 748 mmHg 90%
23:00 +12°C° 0 mm 2 mps 748 mmHg 92%

10 July, Friday

Time Temperature Precipitation Wind Pressure Humidity
00:00 +12°C° 0 mm 2 mps 748 mmHg 93%
01:00 +10°C° 0 mm 2 mps 748 mmHg 93%
02:00 +10°C° 0 mm 2 mps 749 mmHg 94%
03:00 +10°C° 0 mm 2 mps 749 mmHg 94%
04:00 +10°C° 0 mm 2 mps 749 mmHg 94%
05:00 +12°C° 0 mm 2 mps 749 mmHg 94%
06:00 +13°C° 0 mm 2 mps 750 mmHg 88%
07:00 +15°C° 0 mm 2 mps 750 mmHg 83%
08:00 +17°C° 0 mm 2 mps 750 mmHg 77%
09:00 +18°C° 0 mm 2 mps 750 mmHg 73%
10:00 +19°C° 0 mm 3 mps 751 mmHg 68%
11:00 +20°C° 0 mm 3 mps 751 mmHg 64%
12:00 +21°C° 0 mm 3 mps 751 mmHg 63%
13:00 +21°C° 0 mm 3 mps 751 mmHg 63%
14:00 +21°C° 0 mm 3 mps 751 mmHg 63%
15:00 +21°C° 0.1 mm 3 mps 751 mmHg 65%
16:00 +21°C° 0.1 mm 2 mps 751 mmHg 67%
17:00 +21°C° 0.1 mm 2 mps 751 mmHg 69%
18:00 +19°C° 0 mm 2 mps 751 mmHg 74%
19:00 +19°C° 0 mm 1 mps 751 mmHg 79%
20:00 +16°C° 0 mm 1 mps 751 mmHg 84%
21:00 +16°C° 0 mm 1 mps 751 mmHg 85%
22:00 +15°C° 0 mm 2 mps 752 mmHg 86%
23:00 +14°C° 0 mm 2 mps 752 mmHg 87%

11 July, Saturday

Time Temperature Precipitation Wind Pressure Humidity
00:00 +14°C° 0 mm 2 mps 752 mmHg 87%
01:00 +13°C° 0 mm 2 mps 752 mmHg 88%
02:00 +13°C° 0 mm 2 mps 752 mmHg 89%
03:00 +12°C° 0 mm 3 mps 752 mmHg 89%
04:00 +13°C° 0 mm 3 mps 752 mmHg 90%
05:00 +13°C° 0 mm 3 mps 752 mmHg 90%
06:00 +14°C° 0 mm 3 mps 752 mmHg 85%
07:00 +17°C° 0 mm 4 mps 752 mmHg 81%
08:00 +19°C° 0 mm 4 mps 752 mmHg 76%
09:00 +20°C° 0 mm 5 mps 752 mmHg 73%
10:00 +22°C° 0 mm 5 mps 752 mmHg 69%
11:00 +23°C° 0 mm 6 mps 752 mmHg 66%
12:00 +23°C° 0 mm 6 mps 752 mmHg 66%
13:00 +24°C° 0 mm 6 mps 751 mmHg 65%
14:00 +24°C° 0 mm 6 mps 751 mmHg 65%
15:00 +25°C° 0 mm 5 mps 751 mmHg 68%
16:00 +23°C° 0 mm 5 mps 751 mmHg 70%
17:00 +23°C° 0 mm 4 mps 750 mmHg 73%
18:00 +22°C° 0 mm 4 mps 750 mmHg 77%
19:00 +21°C° 0 mm 4 mps 750 mmHg 82%
20:00 +19°C° 0 mm 4 mps 750 mmHg 86%
21:00 +19°C° 0 mm 4 mps 750 mmHg 88%
22:00 +18°C° 0 mm 4 mps 750 mmHg 89%
23:00 +17°C° 0 mm 4 mps 750 mmHg 90%
Show more